Location: *
(48.8007°S, 145.6343°W)
Time: 03:20:20
(UTC+00:00)

Daily predictions for brighter satellites

Satellite Brightness Start Highest point End
(mag) Time Altitude Azimuth Time Altitude Azimuth Time Altitude Azimuth
Cosmos 1980 Rocket 4.0 02:23:18 10° W 02:27:50 24° SW 02:32:22 10° S
STARLINK-48 4.1 02:26:13 10° NW 02:30:01 47° NE 02:33:51 10° ESE
Cosmos 1346 Rocket 3.9 02:27:11 10° NNE 02:30:30 26° E 02:33:54 10° SE
STARLINK-41 3.0 02:28:12 10° WNW 02:31:25 88° SW 02:34:41 10° ESE
CZ-4B R/B 4.5 02:32:46 10° NW 02:35:31 21° W 02:38:19 10° SW
CZ-4B R/B 3.2 02:33:54 10° SSE 02:38:13 62° E 02:42:39 10° N
SKYMED 2 3.6 02:36:26 10° NNE 02:40:48 71° ESE 02:45:13 10° S
Cosmos 1844 3.8 02:35:11 10° SSW 02:40:51 85° WNW 02:46:27 10° NNE
Meteor PRIRODA 3.9 02:37:19 10° SSE 02:40:59 49° E 02:44:37 10° N
STARLINK-1317 3.3 02:38:52 10° WNW 02:42:29 90° SW 02:46:05 10° ESE
STARLINK-1291 3.1 02:39:17 10° WNW 02:42:41 87° NNE 02:46:03 10° ESE
Cosmos 2219 Rocket 2.8 02:38:04 10° N 02:43:18 39° ENE 02:48:35 10° SE
STARLINK-1278 4.4 02:40:27 10° NW 02:44:31 43° NE 02:48:35 10° ESE
STARLINK-1264 3.1 02:41:09 10° WNW 02:44:34 89° NNE 02:47:52 11° ESE
Iridium 4 Rocket 3.6 02:40:37 10° N 02:46:04 87° W 02:51:06 10° S
STARLINK-1280 4.4 02:42:15 10° NW 02:46:21 44° NE 02:50:21 11° ESE
STARLINK-1267 3.1 02:43:01 10° WNW 02:46:28 89° SSW 02:49:43 11° ESE
ALOS 2.3 02:41:41 10° SSE 02:46:28 73° ENE 02:51:10 10° N
STARLINK-33 3.1 02:43:21 10° WNW 02:46:37 67° SSW 02:49:41 12° ESE
Cosmos 1680 Rocket 4.4 02:43:26 10° NNE 02:48:01 30° E 02:52:36 10° SE
Meteor 2-6 Rocket 4.3 02:42:42 10° S 02:48:07 56° ESE 02:53:35 10° NNE
CZ-4C R/B 4.0 02:42:00 10° W 02:48:13 28° SSW 02:53:36 10° SE
STARLINK-64 3.8 02:44:50 10° NW 02:48:19 48° NE 02:51:34 12° ESE
STARLINK-1272 3.1 02:44:54 10° WNW 02:48:20 87° SSW 02:51:31 12° ESE
H-2A R/B 2.6 02:44:36 10° SSE 02:48:48 56° E 02:52:46 10° N
Cosmos 1340 2.7 02:45:11 10° N 02:48:57 61° E 02:52:46 10° SSE
STARLINK-1207 3.1 02:46:48 10° WNW 02:50:14 86° SSW 02:53:21 12° ESE
STARLINK-1300 4.4 02:47:37 10° NNW 02:51:34 40° NE 02:55:11 12° ESE
STARLINK-1266 3.1 02:48:44 10° WNW 02:52:10 83° SSW 02:55:13 13° ESE
CZ-4B R/B 4.2 02:49:25 10° S 02:53:30 67° WSW 02:57:20 10° NNW
STARLINK-1284 3.1 02:50:41 10° WNW 02:54:08 81° SSW 02:57:06 14° ESE
STARLINK-66 3.3 02:52:04 10° W 02:55:19 60° SSW 02:58:03 14° ESE
STARLINK-1258 3.1 02:52:36 10° WNW 02:56:02 80° SSW 02:58:56 14° ESE
Starlink 7 placeholder 4.5 02:53:39 10° WSW 02:56:30 35° NW 02:59:13 10° NNE
STARLINK-1295 4.3 02:52:34 10° NW 02:56:34 43° NE 03:00:00 13° ESE
STARLINK-1292 3.1 02:54:34 10° WNW 02:58:00 78° SSW 03:00:49 15° ESE
Shenzhou-11 Module 4.2 02:57:20 10° NNW 02:58:48 14° NNE 03:00:17 10° NE
Cosmos 1500 Rocket 3.6 02:55:19 10° N 02:59:43 89° ENE 03:04:10 10° S
Cosmos 2322 Rocket 3.4 02:54:21 10° WNW 02:59:44 40° SW 03:05:11 10° SSE
STARLINK-1338 3.7 02:56:10 10° WSW 02:59:45 48° SSE 03:02:43 14° E
STARLINK-52 2.9 02:56:38 10° WSW 02:59:57 83° SSE 03:03:14 10° ENE
STARLINK-1274 3.2 02:56:33 10° WNW 03:00:00 76° SSW 03:02:44 15° ESE
Cosmos 1782 3.1 02:55:58 10° SSW 03:00:02 73° W 03:04:03 10° N
STARLINK-1287 4.2 02:57:27 10° NW 03:01:29 46° NE 03:04:45 15° ESE
STARLINK-1289 3.2 02:58:33 10° WNW 03:02:01 74° SSW 03:04:41 16° ESE
FALCON 9 DEB 3.2 02:59:25 10° WSW 03:02:59 69° SSE 03:06:16 11° ENE
Cosmos 1862 3.8 02:59:50 10° NNE 03:03:39 41° E 03:07:33 10° SSE
STARLINK-1303 3.2 03:00:32 10° WNW 03:03:59 73° SSW 03:06:35 17° ESE
Envisat 4.3 03:01:07 10° SE 03:04:55 20° E 03:08:42 10° NE
STARLINK-1371 3.6 03:01:29 10° WSW 03:05:06 50° SSE 03:07:51 16° E
Cosmos 2123 Rocket 4.0 02:58:50 10° S 03:05:09 86° E 03:11:26 10° N
SL-4 R/B 3.0 03:02:13 10° WSW 03:05:45 43° NNW 03:09:29 10° NE
STARLINK-1312 3.2 03:02:31 10° WNW 03:05:58 71° SSW 03:08:29 17° ESE
USA 234 3.4 02:59:40 11° SE 03:06:07 82° SSW 03:12:43 10° WNW
STARLINK-75 3.3 03:03:12 10° W 03:06:25 57° SSW 03:08:42 18° ESE
STARLINK-1341 3.6 03:04:06 10° WSW 03:07:44 51° SSE 03:10:24 17° E
Cosmos 1238 Rocket 4.2 03:04:45 10° NE 03:07:57 20° E 03:09:29 16° ESE
Meteor 1-27 Rocket 4.1 03:03:51 10° S 03:09:34 47° ESE 03:15:17 10° NE
Cosmos 1805 Rocket 3.7 03:05:43 10° N 03:10:02 56° E 03:14:27 10° SSE
STARLINK-1374 3.6 03:06:43 10° WSW 03:10:21 52° SSE 03:12:54 18° E
STARLINK-1302 4.0 03:07:19 10° NW 03:11:24 53° NNE 03:14:19 18° ESE
ADEOS Rocket 4.0 03:04:02 10° N 03:11:39 71° WNW 03:19:33 10° SSW
STARLINK-1339 3.6 03:09:22 10° WSW 03:13:00 53° SSE 03:15:27 19° E
STARLINK-58 3.0 03:10:01 10° WNW 03:13:17 77° SSW 03:15:18 21° ESE
COSMOS 2428 2.8 03:08:00 10° N 03:13:38 59° ENE 03:19:18 10° SE
Cosmos 1538 Rocket 4.4 03:09:29 10° NW 03:14:41 64° WSW 03:19:54 10° SSE
STARLINK-1377 3.5 03:11:49 10° WSW 03:15:27 54° SSE 03:17:47 20° E
STARLINK-22 3.3 03:12:48 10° W 03:16:03 58° SSW 03:17:59 22° SE
STARLINK-1273 3.9 03:12:16 10° NW 03:16:23 57° NNE 03:19:07 20° ESE
Cosmos 1812 2.8 03:14:10 10° S 03:18:03 54° ESE 03:21:52 10° NNE
STARLINK-1353 3.5 03:14:30 10° WSW 03:18:08 55° SSE 03:20:20 22° E
Cosmos 1461 2.8 03:15:16 10° SSW 03:19:15 55° SE 03:23:05 10° NE
STARLINK-80 3.7 03:15:48 10° W 03:19:38 61° SSW 03:22:00 22° ESE
ATLAS 5 CENTAUR R/B 3.7 03:14:04 10° NNE 03:19:51 27° ENE 03:23:17 18° ESE
STARLINK-43 4.0 03:16:54 10° WSW 03:20:31 43° S 03:22:33 22° SE
STARLINK-1375 3.5 03:17:23 10° WSW 03:21:04 56° SSE 03:23:11 23° E
STARLINK-1320 3.1 03:18:04 10° WSW 03:21:15 56° SSE 03:22:49 26° E
STARLINK-1288 3.8 03:17:11 10° NW 03:21:20 61° NNE 03:23:53 22° ESE
STARLINK 1040 3.6 03:19:02 10° WSW 03:21:29 31° S 03:22:20 25° SSE
STARLINK-1322 3.1 03:18:23 10° WSW 03:21:33 56° SSE 03:23:08 26° E
STARLINK-1324 3.0 03:18:44 10° WSW 03:21:55 57° SSE 03:23:28 26° E
STARLINK-1294 3.0 03:19:06 10° WSW 03:22:16 57° SSE 03:23:45 27° E
STARLINK-1261 3.0 03:19:24 10° WSW 03:22:35 57° SSE 03:24:06 27° E
Cosmos 1624 Rocket 4.1 03:17:29 10° SSW 03:22:41 54° ESE 03:27:51 10° NE
STARLINK-1325 3.0 03:19:44 10° WSW 03:22:54 57° SSE 03:24:25 27° E
STARLINK-1333 3.0 03:20:07 10° WSW 03:23:18 57° SSE 03:24:48 27° E
STARLINK-1350 3.4 03:19:52 10° WSW 03:23:32 57° SSE 03:25:31 24° E
STARLINK-1334 3.0 03:20:26 10° WSW 03:23:37 58° SSE 03:25:05 27° E
STARLINK-1326 3.0 03:20:47 10° WSW 03:23:58 58° SSE 03:25:25 28° E
STARLINK-1323 3.0 03:21:05 10° WSW 03:24:16 58° SSE 03:25:43 28° E
CZ-4B R/B 3.5 03:19:04 10° SSE 03:24:20 45° E 03:29:37 10° N
STARLINK-1349 3.0 03:21:28 10° WSW 03:24:39 58° SSE 03:26:05 28° E
STARLINK-1336 3.0 03:21:47 10° WSW 03:24:58 58° SSE 03:26:23 28° E
Cosmos 1943 Rocket 3.7 03:21:56 10° S 03:25:14 16° SE 03:25:54 15° SE
STARLINK-1331 3.0 03:22:09 10° WSW 03:25:21 59° SSE 03:26:45 29° E
STARLINK-1344 3.0 03:22:30 10° WSW 03:25:42 59° SSE 03:27:05 29° E
STARLINK-1343 3.0 03:22:47 10° WSW 03:25:58 59° SSE 03:27:21 29° E
Cosmos 2369 Rocket 3.9 03:23:19 10° S 03:26:14 14° SSE 03:26:53 14° SE
STARLINK-1352 3.4 03:22:35 10° WSW 03:26:16 59° SSE 03:28:09 26° E
Cosmos 2237 Rocket 3.0 03:21:23 10° NNE 03:26:19 31° ENE 03:29:11 20° ESE
STARLINK-1308 3.7 03:22:10 10° NW 03:26:20 66° NNE 03:28:42 25° ESE
STARLINK-1346 3.0 03:23:12 10° WSW 03:26:22 59° SSE 03:27:41 30° E
STARLINK-1328 3.0 03:23:28 10° WSW 03:26:40 60° SSE 03:28:01 30° E
STARLINK-1354 3.0 03:23:47 10° WSW 03:26:59 60° SSE 03:28:20 30° E
STARLINK-1347 3.0 03:24:09 10° WSW 03:27:21 60° SSE 03:28:40 30° E
STARLINK-1357 3.0 03:24:29 10° WSW 03:27:41 60° SSE 03:28:59 31° E
STARLINK-1335 3.0 03:24:53 10° WSW 03:28:05 61° SSE 03:29:22 31° E
Meteor 2-20 Rocket 4.5 03:21:55 10° S 03:28:14 87° E 03:34:27 10° N
STARLINK-1327 3.0 03:25:09 10° WSW 03:28:20 61° SSE 03:29:38 31° E
STARLINK-1283 3.8 03:24:40 10° W 03:28:30 56° SSW 03:30:29 26° SE
STARLINK-1340 3.0 03:25:30 10° WSW 03:28:41 61° SSE 03:29:57 32° E
COSMO-SKYMED 1 4.1 03:24:49 10° NNW 03:28:56 39° W 03:33:07 10° SSW
STARLINK-1368 3.4 03:25:20 10° WSW 03:29:01 60° SSE 03:30:47 28° E
STARLINK-1356 3.0 03:25:50 10° WSW 03:29:02 61° SSE 03:30:17 32° E
Cosmos 371 Rocket 4.3 03:25:03 10° S 03:29:05 25° SE 03:30:09 23° ESE
Lacrosse 5 rocket 3.7 03:28:15 10° NE 03:28:58 11° ENE 03:28:58 11° ENE
SL-16 R/B 4.1 03:24:41 10° W 03:29:19 25° SW 03:33:59 10° S
STARLINK-1345 3.0 03:26:10 10° WSW 03:29:22 61° SSE 03:30:37 32° E
STARLINK-1355 3.0 03:26:31 10° WSW 03:29:42 62° SSE 03:30:56 33° E
STARLINK-1321 2.9 03:26:53 10° WSW 03:30:04 62° SSE 03:31:17 33° E
STARLINK-1358 2.9 03:27:11 10° WSW 03:30:23 62° SSE 03:31:35 33° E
STARLINK-1332 2.9 03:27:35 10° WSW 03:30:47 62° SSE 03:31:58 34° E
STARLINK-1348 2.9 03:27:53 10° WSW 03:31:05 63° SSE 03:32:15 34° E
Cosmos 1707 Rocket 3.5 03:26:46 10° S 03:31:17 72° E 03:35:42 10° NNE
STARLINK-1330 2.9 03:28:11 10° WSW 03:31:23 63° SSE 03:32:33 34° E
STARLINK-1369 3.3 03:28:05 10° WSW 03:31:47 62° SSE 03:33:26 29° E
STARLINK-1363 2.9 03:28:36 10° WSW 03:31:48 63° SSE 03:32:57 34° E
STARLINK-1337 2.9 03:28:53 10° WSW 03:32:05 63° SSE 03:33:13 35° E
STARLINK-1342 2.9 03:29:13 10° WSW 03:32:25 64° SSE 03:33:32 35° E
STARLINK-1311 3.4 03:29:32 10° W 03:32:30 46° SSW 03:33:30 32° SE
STARLINK-1364 2.9 03:29:32 10° WSW 03:32:44 64° SSE 03:33:51 36° E
STARLINK-1376 2.9 03:29:55 10° WSW 03:33:07 64° SSE 03:34:12 36° E
STARLINK-1360 2.9 03:30:14 10° WSW 03:33:25 64° SSE 03:34:30 36° E
STARLINK-1361 2.9 03:30:33 10° WSW 03:33:45 65° SSE 03:34:49 37° E
STARLINK-61 3.8 03:30:00 10° NW 03:33:53 55° NNE 03:35:36 30° E
STARLINK-1367 2.9 03:30:56 10° WSW 03:34:05 65° SSE 03:35:06 38° E
STARLINK-1366 2.9 03:31:18 10° WSW 03:34:30 65° SSE 03:35:32 37° E
STARLINK-1372 3.3 03:30:52 10° WSW 03:34:33 63° SSE 03:36:06 31° E
NOSS 3-4 (A) 4.4 03:27:56 10° SW 03:34:47 36° SSE 03:38:21 23° ESE
NOSS 3-4 (C) 4.4 03:28:02 10° SW 03:34:53 36° SSE 03:38:25 23° ESE
STARLINK-1304 3.6 03:32:04 10° NW 03:36:16 74° NNE 03:38:15 30° ESE
Cosmos 1934 Rocket 4.5 03:30:45 10° NNW 03:37:04 66° WSW 03:43:32 10° S
Cosmos 1633 4.3 03:33:51 10° NW 03:37:11 33° WSW 03:40:34 10° S
STARLINK-1378 3.3 03:33:49 10° WSW 03:37:33 66° SSE 03:39:00 34° E
Cosmos 1371 Rocket 4.0 03:32:17 10° SSW 03:37:45 79° ESE 03:43:09 10° NNE
STARLINK-42 3.7 03:34:43 10° W 03:37:52 43° S 03:38:50 33° SE
STARLINK-1316 3.5 03:35:03 10° W 03:38:10 48° SSW 03:39:06 35° SE
STARLINK-1286 3.6 03:34:13 10° WNW 03:38:26 79° NNE 03:40:23 31° ESE
STARLINK-1257 3.5 03:35:59 10° W 03:39:06 48° SSW 03:39:59 36° SE
STARLINK-1329 3.3 03:36:07 10° WSW 03:39:50 67° SSE 03:41:11 36° E
STARLINK-1256 3.5 03:36:53 10° W 03:40:00 47° SSW 03:40:51 36° SSE
STARLINK-1379 3.3 03:36:26 10° WSW 03:40:08 67° SSE 03:41:27 36° E
STARLINK-1213 3.5 03:37:48 10° W 03:40:55 47° SSW 03:41:43 37° SSE
STARLINK-1263 3.5 03:38:41 10° W 03:41:49 47° SSW 03:42:35 37° SSE
ATLAS CENTAUR R/B 3.3 03:38:55 10° SSW 03:42:08 18° SSE 03:42:24 18° SSE
SL-16 R/B 3.9 03:38:49 10° NE 03:40:31 14° ENE 03:40:31 14° ENE
STARLINK-1259 3.5 03:39:36 10° W 03:42:42 46° SSW 03:43:26 38° SSE
STARLINK-1362 3.3 03:39:10 10° WSW 03:42:56 69° SSE 03:44:13 38° E
STARLINK-1365 3.3 03:39:24 10° WSW 03:43:10 71° SSE 03:44:28 38° E
STARLINK-1265 3.5 03:40:08 10° W 03:43:13 46° SSW 03:43:54 38° SSE
STARLINK-1285 3.5 03:40:30 10° W 03:43:36 46° SSW 03:44:19 38° SSE
STARLINK-69 4.4 03:40:33 10° NNW 03:44:03 32° NE 03:44:49 29° ENE
STARLINK-1268 3.5 03:41:12 10° W 03:44:17 46° SSW 03:44:57 39° SSE
Cosmos 1862 Rocket 3.8 03:40:46 10° S 03:45:14 50° ESE 03:49:39 10° NNE
STARLINK-1296 3.5 03:42:20 10° W 03:45:26 45° SSW 03:46:04 39° SSE
STARLINK-21 4.4 03:42:04 10° NNW 03:45:33 31° NE 03:46:13 29° ENE
STARLINK-1373 3.3 03:42:01 10° WSW 03:45:46 71° SSE 03:46:55 41° E
Cosmos 158 Rocket 3.9 03:40:48 10° NNW 03:45:59 76° ENE 03:50:17 16° SSE
Cosmos 2333 Rocket 2.4 03:40:30 10° NW 03:46:17 73° WSW 03:51:31 13° SSE
STARLINK-1260 3.5 03:43:14 10° W 03:46:20 45° SSW 03:46:56 39° SSE
STARLINK-1318 3.5 03:44:10 10° W 03:47:15 45° SSW 03:47:48 40° SSE
STARLINK-45 4.3 03:43:47 10° NNW 03:47:21 34° NE 03:48:01 32° ENE
Cosmos 1605 Rocket 4.1 03:41:28 10° NNW 03:47:42 81° W 03:53:57 10° S
STARLINK-1275 3.5 03:45:01 10° W 03:48:07 45° SSW 03:48:38 40° SSE
STARLINK-1390 3.2 03:44:44 10° WSW 03:48:28 73° SSE 03:49:28 45° E
Cosmos 2278 Rocket 2.2 03:42:55 10° SSW 03:48:41 90° WNW 03:54:23 10° NNE
STARLINK-70 4.3 03:45:22 10° NNW 03:48:56 34° NE 03:49:32 32° ENE
Cosmos 2112 Rocket 3.9 03:43:37 10° NNW 03:48:57 80° ENE 03:53:08 17° SSE
STARLINK-1309 3.5 03:45:55 10° W 03:49:01 44° SSW 03:49:30 41° SSE
STARLINK-1282 3.5 03:46:51 10° W 03:49:57 44° SSW 03:50:23 41° SSE
STARLINK-71 4.3 03:46:13 10° NNW 03:49:58 36° NE 03:50:42 33° ENE
BREEZE-M DEB (TANK) 3.4 03:47:35 10° W 03:50:06 38° NNW 03:51:29 24° NE
Okean O Rocket 1.5 03:46:10 12° SSE 03:50:22 75° ENE 03:54:50 10° N
STARLINK-76 4.3 03:46:55 10° NNW 03:50:28 34° NE 03:50:58 32° NE
STARLINK-1313 3.6 03:47:55 10° W 03:51:01 42° S 03:51:23 40° S
STARLINK-62 3.4 03:47:54 10° W 03:51:06 50° SSW 03:51:36 45° SSE
STARLINK-1279 3.6 03:48:55 10° W 03:51:59 42° S 03:52:20 40° S
STARLINK-1299 3.7 03:47:43 10° WNW 03:52:03 83° SSW 03:53:34 40° ESE
STARLINK-23 4.3 03:48:32 10° NNW 03:52:06 34° NE 03:52:33 33° NE
STARLINK-1029 3.2 03:49:26 10° W 03:52:36 56° SSW 03:53:00 51° SSE
STARLINK-1298 3.5 03:49:34 10° W 03:52:38 43° SSW 03:52:58 42° S
STARLINK-1306 3.6 03:48:27 10° WNW 03:52:44 88° SSW 03:54:09 42° ESE
Cosmos 405 4.4 03:49:24 10° SSW 03:52:48 40° W 03:56:09 10° NNW
STARLINK-34 3.4 03:49:51 10° W 03:53:03 49° SSW 03:53:28 45° SSE
H-2A R/B 2.7 03:50:10 17° SSE 03:53:09 85° ENE 03:57:04 10° NNW
STARLINK-1301 3.8 03:49:57 10° W 03:53:25 46° S 03:54:03 41° SSE
STARLINK-1293 3.5 03:50:30 10° W 03:53:35 43° SSW 03:53:53 42° S
STARLINK-32 4.2 03:50:08 10° NNW 03:53:43 35° NE 03:54:06 34° NE
BREEZE-M DEB (TANK) 1.3 03:51:43 10° W 03:53:53 76° WNW 03:53:53 76° WNW
STARLINK-55 3.7 03:51:46 10° WSW 03:54:54 39° S 03:55:06 38° S
STARLINK-40 4.2 03:51:46 10° NNW 03:55:22 36° NE 03:55:43 36° NE
STARLINK-1255 3.6 03:52:18 10° W 03:55:23 43° S 03:55:35 42° S
STARLINK-1281 3.6 03:51:57 10° WNW 03:56:10 88° SSW 03:57:23 46° ESE
STARLINK-1307 3.7 03:53:15 10° W 03:56:44 47° S 03:57:15 43° SSE
STARLINK-44 4.1 03:53:21 10° NNW 03:56:58 37° NE 03:57:15 37° NE
SMAP 3.1 03:54:07 22° SSE 03:57:04 57° E 04:01:41 10° N
Sich 1 3.4 03:53:18 10° NNW 03:57:41 66° WSW 04:02:12 10° S
STARLINK-1051 4.5 03:54:51 10° NNW 03:58:39 34° NE 03:58:57 33° NE
STARLINK-37 4.0 03:55:06 10° NNW 03:58:46 40° NE 03:59:03 40° NE
STARLINK-1290 3.7 03:56:00 10° W 03:59:28 46° S 03:59:53 44° SSE
STARLINK-36 4.1 03:56:34 10° NNW 04:00:14 39° NE 04:00:24 39° NE
STARLINK-1310 3.6 03:56:56 10° WNW 04:01:10 84° SSW 04:02:10 51° ESE
ATLAS 2AS CENTAUR R/B 3.1 03:55:25 10° SW 04:01:33 42° SE 04:03:39 33° ESE
STARLINK-68 3.9 03:58:21 10° NW 04:02:04 43° NE 04:02:14 43° NE
STARLINK-1297 3.7 03:58:40 10° W 04:02:08 46° S 04:02:25 44° S
STARLINK-26 3.9 03:59:32 10° WSW 04:02:54 40° S 04:03:00 40° S
STARLINK-63 4.0 03:59:56 10° NW 04:03:39 43° NE 04:03:44 43° NE
Cosmos 2360 Rocket 3.9 03:59:07 10° WNW 04:03:58 28° SW 04:08:50 10° SSE
STARLINK-35 4.0 04:01:27 10° NW 04:05:09 42° NE 04:05:09 42° NE
STARLINK-28 4.0 04:02:13 10° WSW 04:05:06 37° SSW 04:05:06 37° SSW
STARLINK-1319 3.6 04:01:55 10° WNW 04:06:08 80° SSW 04:06:57 57° SE
Cosmos 2056 Rocket 3.7 04:00:49 10° SSW 04:06:13 73° WNW 04:11:28 10° NNE
STARLINK-51 4.0 04:03:07 10° NW 04:06:47 44° NNE 04:06:47 44° NNE
STARLINK-41 4.0 04:04:32 10° WSW 04:07:16 37° SSW 04:07:16 37° SSW
STARLINK-30 4.0 04:04:44 10° NW 04:08:21 44° NNE 04:08:21 44° NNE
STARLINK-1028 4.3 04:04:39 10° NNW 04:08:32 39° NE 04:08:32 39° NE
STARLINK-48 3.7 04:04:43 10° W 04:08:38 57° SSW 04:09:07 52° SSE
STARLINK-72 3.9 04:06:23 10° NW 04:09:58 46° NNE 04:09:58 46° NNE
NOAA 6 4.5 04:05:21 10° S 04:10:29 62° WSW 04:15:34 10° NNW
STARLINK-1277 3.6 04:06:53 10° WNW 04:11:07 77° SSW 04:11:43 62° SE
CZ-2C R/B 2.9 04:12:08 44° ESE 04:12:28 45° ESE 04:17:37 10° S
STARLINK-59 3.9 04:09:42 10° NW 04:13:13 49° NNE 04:13:13 49° NNE
STARLINK-1021 4.2 04:09:33 10° NW 04:13:19 42° NNE 04:13:19 42° NNE
STARLINK-56 3.9 04:11:15 10° NW 04:14:41 48° NNE 04:14:41 48° NNE
STARLINK-1276 3.6 04:11:54 10° WNW 04:16:07 73° SSW 04:16:30 67° SSE
STARLINK-73 3.9 04:12:52 10° NW 04:16:15 48° N 04:16:15 48° N
STARLINK-38 3.9 04:14:31 10° NW 04:17:51 49° N 04:17:51 49° N
STARLINK-1019 4.2 04:14:29 10° NW 04:18:06 44° NNE 04:18:06 44° NNE
Cosmos 1818 3.4 04:13:15 10° NNW 04:18:39 75° NE 04:20:02 50° SE
STARLINK-24 3.8 04:15:16 10° NW 04:18:59 55° NNE 04:18:59 55° NNE
STARLINK-1291 4.3 04:16:19 10° WSW 04:18:57 36° SW 04:18:57 36° SW
STARLINK-65 4.0 04:16:08 10° NW 04:19:26 49° N 04:19:26 49° N
STARLINK-1317 4.2 04:16:36 10° WSW 04:19:38 40° SSW 04:19:38 40° SSW
STARLINK-1305 3.6 04:16:53 10° WNW 04:21:06 70° SSW 04:21:17 69° S
STARLINK-1264 4.3 04:18:11 10° WSW 04:20:47 36° SW 04:20:47 36° SW
STARLINK-53 3.9 04:17:56 10° NW 04:21:15 51° N 04:21:15 51° N
STARLINK-1267 4.4 04:20:06 10° WSW 04:22:39 35° SW 04:22:39 35° SW
STARLINK-1012 4.2 04:19:23 10° NW 04:22:53 45° N 04:22:53 45° N
Cosmos 332 Rocket 4.5 04:18:44 10° SSW 04:22:18 39° SSE 04:22:18 39° SSE
STARLINK-25 4.1 04:20:03 10° NW 04:22:57 44° NNW 04:22:57 44° NNW
Cosmos 1666 Rocket 4.3 04:19:45 10° NNW 04:24:03 51° WSW 04:27:45 14° S
Cosmos 2100 Rocket 3.8 04:18:08 10° N 04:24:21 81° E 04:30:37 10° S
STARLINK-1278 3.8 04:20:11 10° W 04:24:29 64° SSW 04:24:39 63° S
Meteor 1-25 Rocket 4.2 04:19:19 10° N 04:24:47 59° E 04:25:30 54° ESE
Meteor 1-18 Rocket 4.2 04:19:28 10° S 04:25:09 56° ESE 04:25:27 55° E
STARLINK-1272 4.5 04:22:00 10° WSW 04:24:28 34° SW 04:24:28 34° SW
SeaSat 1 4.2 04:27:40 18° S 04:27:40 18° S 04:29:30 10° S
STARLINK-64 4.1 04:22:13 10° W 04:25:13 47° SW 04:25:13 47° SW
STARLINK-1262 3.8 04:21:54 10° WNW 04:26:04 67° SSW 04:26:04 67° SSW
Cosmos 1633 Rocket 3.6 04:21:49 10° NNW 04:26:13 59° WSW 04:29:25 19° S
STARLINK-1280 3.9 04:22:02 10° W 04:26:21 63° SSW 04:26:25 63° S
Cosmos 2219 Rocket 3.3 04:21:49 10° WNW 04:27:14 42° SW 04:31:16 17° SSE
YAOGAN 6 3.4 04:28:41 45° NNW 04:28:41 45° NNW 04:31:19 10° NNW
STARLINK-1300 3.9 04:26:51 10° W 04:30:50 63° SW 04:30:50 63° SW
STARLINK-1026 4.4 04:29:15 10° NW 04:32:27 45° NNW 04:32:27 45° NNW
STARLINK-50 4.3 04:31:18 10° NW 04:34:26 49° NNW 04:34:26 49° NNW
STARLINK-1295 4.1 04:31:54 10° W 04:35:39 58° SW 04:35:39 58° SW
Cosmos 1452 Rocket 3.4 04:31:21 10° SSW 04:36:43 79° ESE 04:37:05 75° ENE
STARLINK-1338 4.4 04:33:43 10° WSW 04:36:25 43° W 04:36:25 43° W
CZ-4C R/B 3.9 04:33:52 10° SW 04:38:51 21° S 04:39:28 21° SSE
Cosmos 1420 Rocket 4.2 04:34:45 10° SSW 04:40:08 71° WNW 04:43:40 21° N
Cosmos 2061 Rocket 3.8 04:34:39 10° N 04:40:55 71° E 04:43:06 42° SSE
STARLINK-1287 4.3 04:36:52 10° W 04:40:24 52° WSW 04:40:24 52° WSW
Cosmos 1980 3.8 04:36:13 10° NW 04:41:55 73° WSW 04:43:46 44° SSE
Envisat 3.4 04:41:07 22° S 04:44:24 63° WSW 04:49:27 10° NNW
Feng Yun 1-1 Rocket 4.0 04:45:19 71° SSE 04:45:58 86° ENE 04:51:27 10° NNW
Cosmos 1238 Rocket 4.3 04:43:20 10° NW 04:47:24 36° WSW 04:48:23 31° SW
NOSS 0 Rocket 4.3 04:42:24 10° NW 04:48:36 61° SW 04:51:20 34° SSE
Cosmos 2297 3.5 04:42:57 10° SSW 04:48:34 81° SE 04:48:34 81° SE
Meteor 1-20 Rocket 4.2 04:42:57 10° N 04:48:44 90° SW 04:50:17 52° S
USA 234 3.8 04:47:01 39° SSE 04:48:45 48° S 04:55:02 10° W
MOS 1 Rocket 4.4 04:51:50 35° SSW 04:51:50 35° SSW 04:54:40 10° SSW
Cosmos 2016 Rocket 3.9 04:45:28 10° N 04:51:46 83° E 04:54:28 38° SSE
Cosmos 2173 Rocket 4.2 04:47:26 10° NNW 04:53:43 69° WSW 04:59:59 10° S
Helios 1A Rocket 4.3 04:56:56 35° NW 04:56:56 35° NW 04:59:29 10° NNW
COSMOS 2428 4.3 04:53:14 10° WNW 04:58:18 30° SW 05:01:20 20° S
Cosmos 1816 Rocket 4.4 04:53:07 10° S 04:59:34 87° E 05:00:33 66° NNE
Cosmos 1459 Rocket 4.4 04:54:48 10° NNW 05:00:59 62° WSW 05:07:21 10° S
COSMOS 2455 4.2 04:55:34 10° SSW 04:58:54 27° S 04:58:54 27° S
DMSP B5D2-2 4.2 05:01:50 71° WSW 05:01:50 71° WSW 05:06:54 10° SSW
ATLAS 5 CENTAUR R/B 2.5 04:57:02 10° NW 05:04:13 83° SW 05:04:51 74° SSE
Gblst 52 Del rocket 4.5 04:58:47 10° W 05:04:58 67° SSW 05:04:58 67° SSW
Lacrosse 5 rocket 3.6 05:03:16 10° NW 05:04:38 20° NNW 05:04:38 20° NNW
Cosmos 371 Rocket 4.2 05:05:04 10° SSW 05:08:53 45° WSW 05:08:53 45° WSW
Cosmos 2237 Rocket 2.9 05:04:38 10° NW 05:10:10 50° SW 05:11:03 46° SSW
Cosmos 1943 Rocket 3.5 05:04:42 10° SSW 05:07:26 29° SSW 05:07:26 29° SSW
Cosmos 2369 Rocket 3.8 05:06:13 10° SSW 05:08:42 25° S 05:08:42 25° S
ATLAS CENTAUR R/B 4.0 05:17:18 10° SSW 05:18:35 18° SSW 05:18:35 18° SSW
SL-16 R/B 3.6 05:19:49 10° NNW 05:22:27 29° NNW 05:22:27 29° NNW
Okean O Rocket 4.4 05:23:38 11° SSW 05:26:10 16° WSW 05:28:52 10° W
NOSS 3-4 (A) 3.8 05:19:18 10° SW 05:25:48 72° WSW 05:25:48 72° WSW
NOSS 3-4 (C) 3.8 05:19:24 10° SW 05:25:52 72° SW 05:25:52 72° SW
Cosmos 1725 Rocket 4.5 05:23:51 10° NNW 05:29:00 56° NW 05:29:00 56° NW
Cosmos 2333 Rocket 4.4 05:27:32 10° W 05:31:36 19° SW 05:33:32 17° SSW
ATLAS 2AS CENTAUR R/B 3.4 05:46:14 10° SW 05:51:06 49° WSW 05:51:06 49° WSW
CZ-2C R/B 4.3 05:53:40 30° WSW 05:53:40 30° WSW 05:57:44 10° SSW
